Вернуться в каталог

STARLINK-5028

АктивенСвязьVLEO
NORAD 53886·PAYLOAD·🇺🇸 United States

Запущен Sep 24, 2022 с Cape Canaveral Space Force Station

Loading…

Ближайшие Пролёты (ближайшие 24 часа)

TLE

СвежийSource: CelesTrak SupGP

Эпоха: Sep 15, 2026, 02:46 UTC

1 53886C 22119A   26258.11576389  .00253130  00000+0  74945-2 0  2580
2 53886  53.1600 188.5370 0001337  82.9756  42.3161 15.34197943    14

Отслеживайте STARLINK-5028 в реальном времени с AllMySat

Download on the App Store